Weather History for KTWM - January, 2013

Change the Weather History Date:

Wednesday, January 30, 2013

  Actual Average Record
Temperature  
Mean Temperature 13 °F -  
Max Temperature 21 °F 24 °F 89 °F (1999)
Min Temperature 5 °F 6 °F -29 °F (1950)
Degree Days  
Heating Degree Days 52    
Moisture  
Dew Point 4 °F    
Average Humidity 68    
Maximum Humidity 80    
Minimum Humidity 53    
Precipitation  
Precipitation 0.00 in - - ()
Sea Level Pressure  
Sea Level Pressure 29.59 in    
Wind  
Wind Speed 5 mph (NNW)    
Max Wind Speed 13 mph    
Max Gust Speed 23 mph    
Visibility 10 miles    
Events Snow    
Averages and records for this station are not official NWS values.
T = Trace of Precipitation, MM = Missing Value Source: NWS Daily Summary

Daily Weather History Graph

Daily Weather History Graph

Search for Another Location

Airport or City:

Trip Planner

Search our weather history database for the weather conditions in past years. The results will help you decide how hot, cold, wet, or windy it might be!

Date:

Astronomy

Jan. 30, 2013 Rise Set
Actual Time 7:34 AM CST 5:07 PM CST
Civil Twilight 7:01 AM CST 5:39 PM CST
Nautical Twilight 6:24 AM CST 6:16 PM CST
Astronomical Twilight 5:48 AM CST 6:52 PM CST
Moon 9:26 PM CST 8:44 AM CST
Length of Visible Light 10h 38m
Length of Day
9h 32m
Waning Gibbous, 87% of the Moon is Illuminated
Jan 30
Waning Gibbous
Feb 3
Last Quarter
Feb 10
New
Feb 17
First Quarter
Feb 25
Full

Hourly Weather History & Observations

Time (CST) Temp. Windchill Dew Point Humidity Pressure Visibility Wind Dir Wind Speed Gust Speed Precip Events Conditions
12:11 AM 19.4 °F - 14.0 °F 80% 29.70 in 10.0 mi Calm Calm - N/A   Overcast
12:32 AM 19.4 °F - 14.0 °F 80% 29.68 in 7.0 mi Calm Calm - N/A   Overcast
12:51 AM 19.4 °F - 14.0 °F 80% 29.70 in 10.0 mi Calm Calm - N/A   Overcast
1:12 AM 19.4 °F - 14.0 °F 80% 29.66 in 10.0 mi Calm Calm - N/A Snow Light Snow
1:31 AM 19.4 °F - 14.0 °F 80% 29.67 in 10.0 mi Calm Calm - N/A   Overcast
1:52 AM 21.2 °F 16.4 °F 14.0 °F 74% 29.63 in 10.0 mi NNW 3.5 mph - N/A   Overcast
2:11 AM 21.2 °F - 14.0 °F 74% 29.63 in 10.0 mi Calm Calm - N/A Snow Light Snow
2:31 AM 21.2 °F 16.4 °F 15.8 °F 80% 29.65 in 7.0 mi NW 3.5 mph - N/A Snow Light Snow
2:52 AM 21.2 °F 12.6 °F 15.8 °F 80% 29.62 in 10.0 mi NNW 6.9 mph - N/A   Overcast
3:11 AM 21.2 °F 10.9 °F 14.0 °F 74% 29.62 in 10.0 mi NNW 9.2 mph - N/A   Overcast
3:31 AM 19.4 °F 8.6 °F 12.2 °F 74% 29.62 in 10.0 mi NNW 9.2 mph - N/A   Overcast
3:52 AM 19.4 °F 11.5 °F 12.2 °F 74% 29.62 in 10.0 mi NNW 5.8 mph - N/A   Overcast
4:10 AM 19.4 °F 10.4 °F 12.2 °F 74% 29.63 in 10.0 mi North 6.9 mph - N/A   Overcast
4:32 AM 19.4 °F 11.5 °F 12.2 °F 74% 29.63 in 10.0 mi NW 5.8 mph - N/A   Overcast
4:51 AM 17.6 °F 10.7 °F 10.4 °F 73% 29.63 in 10.0 mi NW 4.6 mph - N/A   Overcast
5:11 AM 17.6 °F 12.3 °F 10.4 °F 73% 29.64 in 10.0 mi NW 3.5 mph - N/A   Overcast
5:32 AM 17.6 °F 10.7 °F 10.4 °F 73% 29.64 in 10.0 mi NW 4.6 mph - N/A   Overcast
5:51 AM 15.8 °F 6.1 °F 8.6 °F 73% 29.62 in 10.0 mi NW 6.9 mph - N/A Snow Light Snow
6:12 AM 15.8 °F 6.1 °F 8.6 °F 73% 29.61 in 10.0 mi NNW 6.9 mph - N/A   Overcast
6:31 AM 15.8 °F 10.2 °F 8.6 °F 73% 29.61 in 10.0 mi NW 3.5 mph - N/A   Overcast
6:51 AM 15.8 °F 10.2 °F 8.6 °F 73% 29.62 in 10.0 mi NNW 3.5 mph - N/A Snow Light Snow
7:12 AM 15.8 °F 10.2 °F 6.8 °F 68% 29.63 in 10.0 mi NW 3.5 mph - N/A   Overcast
7:31 AM 15.8 °F 7.2 °F 6.8 °F 68% 29.63 in 7.0 mi NW 5.8 mph - N/A Snow Light Snow
7:51 AM 14.0 °F 2.9 °F 6.8 °F 73% 29.62 in 7.0 mi WNW 8.1 mph - N/A Snow Light Snow
8:12 AM 14.0 °F 3.9 °F 6.8 °F 73% 29.61 in 5.0 mi NW 6.9 mph - N/A Snow Light Snow
8:31 AM 14.0 °F 2.0 °F 6.8 °F 73% 29.59 in 5.0 mi NW 9.2 mph - N/A Snow Light Snow
8:51 AM 14.0 °F 3.9 °F 6.8 °F 73% 29.58 in 4.0 mi NW 6.9 mph - N/A Snow Light Snow
9:11 AM 14.0 °F 3.9 °F 6.8 °F 73% 29.59 in 5.0 mi NNW 6.9 mph - N/A Snow Light Snow
9:31 AM 14.0 °F 6.5 °F 6.8 °F 73% 29.58 in 4.0 mi NW 4.6 mph - N/A Snow Light Snow
9:52 AM 14.0 °F 2.9 °F 5.0 °F 67% 29.58 in 10.0 mi North 8.1 mph 17.3 mph N/A   Overcast
10:11 AM 12.2 °F -1.0 °F 3.2 °F 67% 29.58 in 10.0 mi NNW 10.4 mph 20.7 mph N/A   Overcast
10:32 AM 12.2 °F -1.0 °F 3.2 °F 67% 29.58 in 10.0 mi NNW 10.4 mph 16.1 mph N/A   Overcast
10:51 AM 12.2 °F -0.2 °F 3.2 °F 67% 29.58 in 10.0 mi NNW 9.2 mph 17.3 mph N/A   Overcast
11:11 AM 12.2 °F -2.5 °F 1.4 °F 62% 29.59 in 10.0 mi NNW 12.7 mph 20.7 mph N/A   Overcast
11:31 AM 12.2 °F -1.8 °F 1.4 °F 62% 29.58 in 10.0 mi NNW 11.5 mph 21.9 mph N/A   Scattered Clouds
11:51 AM 14.0 °F 2.9 °F 3.2 °F 62% 29.57 in 10.0 mi NW 8.1 mph 19.6 mph N/A   Scattered Clouds
12:11 PM 12.2 °F -1.8 °F 3.2 °F 67% 29.56 in 10.0 mi NNW 11.5 mph 19.6 mph N/A   Mostly Cloudy
12:31 PM 14.0 °F 2.9 °F 3.2 °F 62% 29.56 in 10.0 mi NNW 8.1 mph - N/A   Scattered Clouds
12:52 PM 14.0 °F 2.9 °F 3.2 °F 62% 29.55 in 10.0 mi North 8.1 mph 18.4 mph N/A   Clear
1:11 PM 14.0 °F 1.2 °F 1.4 °F 57% 29.56 in 10.0 mi NNW 10.4 mph 19.6 mph N/A   Clear
1:31 PM 15.8 °F 3.4 °F 3.2 °F 58% 29.55 in 10.0 mi NW 10.4 mph 20.7 mph N/A   Clear
1:52 PM 15.8 °F 5.1 °F 3.2 °F 58% 29.54 in 10.0 mi North 8.1 mph 18.4 mph N/A   Clear
2:11 PM 15.8 °F 4.2 °F 3.2 °F 58% 29.55 in 10.0 mi North 9.2 mph - N/A   Clear
2:31 PM 15.8 °F 4.2 °F 1.4 °F 53% 29.55 in 10.0 mi NNW 9.2 mph - N/A   Clear
2:51 PM 15.8 °F 3.4 °F 1.4 °F 53% 29.55 in 10.0 mi NNW 10.4 mph 16.1 mph N/A   Clear
3:11 PM 12.2 °F -1.8 °F 1.4 °F 62% 29.56 in 10.0 mi WNW 11.5 mph 20.7 mph N/A   Scattered Clouds
3:32 PM 12.2 °F -0.2 °F 1.4 °F 62% 29.57 in 10.0 mi NNW 9.2 mph 19.6 mph N/A   Scattered Clouds
3:51 PM 10.4 °F -1.5 °F -0.4 °F 62% 29.57 in 10.0 mi NNW 8.1 mph 20.7 mph N/A   Clear
4:12 PM 10.4 °F -2.4 °F -0.4 °F 62% 29.57 in 10.0 mi NW 9.2 mph 18.4 mph N/A   Scattered Clouds
4:31 PM 10.4 °F -2.4 °F -0.4 °F 62% 29.57 in 10.0 mi NW 9.2 mph - N/A   Clear
4:51 PM 8.6 °F -5.5 °F -0.4 °F 67% 29.57 in 10.0 mi NW 10.4 mph 17.3 mph N/A   Clear
5:11 PM 8.6 °F -1.3 °F -2.2 °F 62% 29.57 in 10.0 mi NW 5.8 mph - N/A   Clear
5:31 PM 6.8 °F -5.9 °F -2.2 °F 67% 29.58 in 10.0 mi NNW 8.1 mph - N/A   Clear
5:52 PM 6.8 °F -2.0 °F -2.2 °F 67% 29.58 in 10.0 mi NW 4.6 mph - N/A   Scattered Clouds
6:11 PM 6.8 °F -5.9 °F -2.2 °F 67% 29.59 in 10.0 mi NW 8.1 mph 23.0 mph N/A   Scattered Clouds
6:31 PM 6.8 °F -5.9 °F -2.2 °F 67% 29.58 in 10.0 mi NNW 8.1 mph 19.6 mph N/A   Clear
6:52 PM 6.8 °F -3.5 °F -2.2 °F 67% 29.58 in 10.0 mi NNW 5.8 mph 19.6 mph N/A   Clear
7:11 PM 6.8 °F -7.8 °F -2.2 °F 67% 29.58 in 10.0 mi NNW 10.4 mph - N/A   Scattered Clouds
7:31 PM 6.8 °F -5.9 °F -2.2 °F 67% 29.57 in 10.0 mi NNW 8.1 mph 17.3 mph N/A   Clear
7:52 PM 6.8 °F -2.0 °F -2.2 °F 67% 29.57 in 10.0 mi NNW 4.6 mph - N/A   Scattered Clouds
8:11 PM 6.8 °F -7.8 °F -2.2 °F 67% 29.57 in 10.0 mi NNW 10.4 mph 18.4 mph N/A   Scattered Clouds
8:31 PM 6.8 °F -4.8 °F -2.2 °F 67% 29.57 in 10.0 mi NNW 6.9 mph - N/A   Mostly Cloudy
8:51 PM 6.8 °F -3.5 °F -2.2 °F 67% 29.57 in 10.0 mi NW 5.8 mph - N/A   Overcast
9:12 PM 6.8 °F -4.8 °F -2.2 °F 67% 29.57 in 10.0 mi North 6.9 mph - N/A   Overcast
9:31 PM 6.8 °F -5.9 °F -2.2 °F 67% 29.57 in 10.0 mi North 8.1 mph - N/A   Overcast
9:51 PM 6.8 °F -3.5 °F -2.2 °F 67% 29.58 in 10.0 mi NNW 5.8 mph - N/A   Overcast
10:12 PM 6.8 °F -2.0 °F -2.2 °F 67% 29.58 in 10.0 mi NW 4.6 mph 17.3 mph N/A   Overcast
10:31 PM 5.0 °F -5.6 °F -4.0 °F 66% 29.58 in 10.0 mi NNW 5.8 mph - N/A   Overcast
10:51 PM 5.0 °F -2.1 °F -4.0 °F 66% 29.58 in 10.0 mi NNW 3.5 mph - N/A   Overcast
11:12 PM 5.0 °F -5.6 °F -4.0 °F 66% 29.58 in 10.0 mi NNW 5.8 mph - N/A   Overcast
11:31 PM 5.0 °F -8.1 °F -4.0 °F 66% 29.58 in 10.0 mi North 8.1 mph - N/A   Overcast
11:51 PM 5.0 °F -4.1 °F -5.8 °F 61% 29.59 in 10.0 mi NNW 4.6 mph - N/A   Overcast